Location: A O Calhoun Middle School
(33.2198°N, 97.1397°W)
Time: 03:43:06
(UTC+00:00)

H-2A R/B - Pass Details

Date: 11 July 2022
Orbit: 576 x 652 km, 98.5° (Epoch: 17 August)

Event Time Altitude Azimuth Distance (km) Brightness Sun altitude
Rises 03:38:20 0° 355° (N) 2,966 6.4 -20.6°
Reaches altitude 10° 03:40:57 10° 341° (NNW) 2,058 5.7 -21.0°
Maximum altitude 03:44:22 22° 291° (WNW) 1,432 4.6 -21.5°
Drops below altitude 10° 03:47:46 10° 241° (WSW) 2,053 4.9 -21.9°
Sets 03:50:23 0° 226° (SW) 2,956 5.5 -22.3°
